Content
SEND FEEDBACK

Daily
Averages
Monthly
Summary
Malaysia

KUALA LUMPUR, MALAYSIA


Home > Asia > Malaysia
Elevation: 72 feet     Latitude: 03 07N     Longitude: 101 33E

WEATHER
 
SELECT A DAY
Number of Records: 123,462;   Date Range: 7/19/98 - 10/21/14
 
SHARE

PRINT THIS DATA

[ ← Previous Day ]
WEATHER ALMANAC - FEBRUARY 24, 2013
[ Next Day → ]
[ °C ]   °F
Weather ElementAverageHighLow
Temperature81.5 °F91.4 °F (2:00 pm)77 °F (5:00 pm)
Dewpoint77.2 °F78.8 °F (3:00 pm)77 °F (1:00 am)
Humidity87.6 %100 % (5:00 pm)63 % (2:00 pm)
Barometer29.78 in29.83 in (1:00 am)29.71 in (3:00 pm)
Wind Speed2.9 mph9.2 mph (3:00 pm)
Weather ElementAverage
Visibility5.2 mi
Wind DirectionSSE (152.6 °)

Weather ElementTotal
Precipitation---
Cooling Degree Days19.2 (Base 65)
Growing Degree Days34.2 (Base 50)
Averaged from 23 records on February 24, 2013
WEATHER CONDITIONS BREAKOUT
WIND DIRECTION BREAKOUT
WEATHER BY HOUR - FEBRUARY 24, 2013
[ °C ]   °F
Local TimeTemperatureDewpointHumidityBarometerVisibilityWind DirectionWind SpeedGust SpeedPrecipitationEventsConditions
1:00 AM80.6 °F77.0 °F89 %29.83 in5.0 miNorth (350°)1.2 mphMostly Cloudy
2:00 AM80.6 °F77.0 °F89 %29.83 in5.0 miNorth (350°)1.2 mphMostly Cloudy
3:00 AM78.8 °F77.0 °F94 %29.80 in4.3 miCalmMostly Cloudy
4:00 AM78.8 °F77.0 °F94 %29.77 in4.3 miCalmMostly Cloudy
5:00 AM78.8 °F77.0 °F94 %29.77 in3.7 miCalmMostly Cloudy
6:00 AM78.8 °F77.0 °F94 %29.77 in3.7 miNE (40°)1.2 mphMostly Cloudy
7:00 AM78.8 °F77.0 °F94 %29.77 in4.3 miNNE (20°)1.2 mphMostly Cloudy
8:00 AM78.8 °F77.0 °F94 %29.80 in5.6 miNNW (330°)2.3 mphMostly Cloudy
9:00 AM80.6 °F77.0 °F89 %29.83 in5.0 miNNE (30°)3.5 mphOvercast
10:00 AM82.4 °F77.0 °F84 %29.83 in5.6 miNorth (360°)4.6 mphMostly Cloudy
11:00 AM86.0 °F77.0 °F74 %29.83 in6.2 miNNE (30°)2.3 mphMostly Cloudy
12:00 PM87.8 °F77.0 °F70 %29.80 in6.2 miNW (320°)3.5 mphMostly Cloudy
1:00 PM89.6 °F77.0 °F66 %29.77 in6.2 miNW (320°)5.8 mphMostly Cloudy
2:00 PM91.4 °F77.0 °F63 %29.74 in6.2 miNorth (350°)6.9 mphMostly Cloudy
3:00 PM89.6 °F78.8 °F70 %29.71 in6.2 miWest (260°)9.2 mphMostly Cloudy
4:00 PM87.8 °F78.8 °F75 %29.71 in5.6 miWNW (300°)8.1 mphThunderstormThunderstorm
5:00 PM77.0 °F77.0 °F100 %29.71 in1.9 miNNE (20°)1.2 mphRain-ThunderstormThunderstorms and Rain
6:00 PM78.8 °F77.0 °F94 %29.74 in5.6 miCalmMostly Cloudy
7:00 PM78.8 °F78.8 °F100 %29.74 in4.3 miNNE (30°)2.3 mphRainLight Rain
8:00 PM78.8 °F77.0 °F94 %29.77 in6.2 miNorth (360°)4.6 mphMostly Cloudy
9:00 PM78.8 °F77.0 °F94 %29.80 in6.2 miNNE (20°)2.3 mphMostly Cloudy
10:00 PM77.0 °F77.0 °F100 %29.80 in5.0 miNNE (20°)4.6 mphRainLight Rain
11:00 PM77.0 °F77.0 °F100 %29.83 in6.2 miCalmMostly Cloudy
Hourly data recorded from WMSA, located miles away from Kuala Lumpur, Malaysia







STORIES FROM OUR PARTNERS